User: anonymous   Login
Location: Adrasan
(36.3319°N, 30.4314°E)
Time: 04:55:58
(UTC+00:00)
Language:

Delta 2 Rocket - Orbit

View from above orbital plane
View from above orbital plane
View from above satellite
View from above satellite

Ground track
Ground track

The orbit data is extracted from the following two-line orbital elements,

1 20453U 90008B   24108.55095239  .00032611  00000-0  12756-2 0  9990
2 20453  35.6188 203.2107 0210303 222.3156 136.1170 15.06839571820365
Epoch (UTC): 17 April 2024 13:13:22
Eccentricity: 0.0210303
inclination: 35.6188°
perigee height: 400 km
apogee height: 691 km
right ascension of ascending node: 203.2107°
argument of perigee: 222.3156°
revolutions per day: 15.06839571
mean anomaly at epoch: 136.1170°
orbit number at epoch: 82036

The dashed part of the orbit path shows where the satellite is in the earth's shadow,  

DLR